[[{"header":{"parameterUnit":"m.s-1","parameterCategory":1,"la1":30.2991,"la2":30.254,"lo1":-89.0895,"lo2":-89.0444,"dy":0.0017,"dx":0.0017,"nx":28,"ny":28,"refTime":"2023-08-31T09:00:00:Z","depth":0,"parameterNumber":2,"parameterNumberName":"U-component_of_WINDS"},"data":[0,0,0,0,0,0,0,0,0,0,0,0,0,0,0,0,0,0,0,0,0,0,0,0,0,0,0,0,0,0,0,0,0,0,0,0,0,0,0,0,0,0,0,0,0,0,0,0,0,0,0,0,0,0,0,0,0,0,-1.2952,-1.2953,0,-1.2972,-1.2973,-1.2973,-1.2895,-1.2892,-1.289,-1.2888,-1.291,-1.2913,-1.2916,0,0,0,0,0,0,0,0,0,0,0,0,0,-1.2848,-1.285,-1.2952,-1.2953,-1.2953,-1.2972,-1.2973,-1.2973,-1.2895,-1.2892,-1.2889,-1.2887,-1.2909,-1.2913,-1.2916,0,0,0,0,0,0,0,0,0,0,0,0,0,-1.2883,-1.2851,-1.2952,-1.2916,-1.2913,-1.2972,-1.2973,-1.2973,-1.2896,-1.2892,-1.2889,-1.2885,-1.2908,-1.2912,-1.2916,-1.3012,0,0,-1.2929,-1.2931,0,0,0,0,0,0,0,0,-1.2881,-1.2887,-1.2921,-1.2919,-1.2916,-1.2927,-1.2944,-1.2986,-1.2896,-1.2902,-1.2888,-1.2884,-1.2919,-1.2922,-1.2933,-1.3013,-1.3014,-1.2929,-1.2932,-1.2934,-1.2935,0,0,0,0,0,0,0,-1.2879,-1.2886,-1.296,-1.2922,-1.2918,-1.2899,-1.2901,-1.2951,-1.293,-1.2902,-1.2896,-1.2899,-1.2917,-1.293,-1.2933,-1.3014,-1.2929,-1.2933,-1.2936,-1.2937,-1.3172,-1.3176,0,0,0,0,0,0,-1.2881,-1.2884,-1.296,-1.2961,-1.2889,-1.2904,-1.2905,-1.2927,-1.2929,-1.2926,-1.2902,-1.2896,-1.2924,-1.2929,-1.2934,-1.3046,-1.2934,-1.2938,-1.294,-1.3169,-1.3173,-1.3177,0,0,0,0,0,0,-1.2879,-1.2888,-1.2959,-1.2921,-1.2929,-1.291,-1.2935,-1.2929,-1.2942,-1.293,-1.2926,-1.2919,-1.2922,-1.2928,-1.2993,-1.3046,-1.2939,-1.2943,-1.3164,-1.317,-1.3175,-1.3272,0,0,0,0,0,0,-1.2876,-1.2888,-1.2924,-1.2922,-1.2931,-1.3018,-1.2938,-1.2932,-1.2949,-1.2941,-1.2945,-1.2942,-1.2919,-1.2987,-1.2997,-1.305,-1.2946,-1.3159,-1.3167,-1.3173,-1.3264,-1.328,-1.3294,0,0,0,0,0,-1.2873,-1.2951,-1.2926,-1.2936,-1.2975,-1.3021,-1.3026,-1.2998,-1.2954,-1.299,-1.2982,-1.2942,-1.3038,-1.2994,-1.3005,-1.306,-1.3156,-1.3165,-1.3173,-1.3257,-1.3277,-1.3293,0,0,0,0,0,0,-1.2961,-1.295,-1.2923,-1.3003,-1.3013,-1.3008,-1.3053,-1.3019,-1.3043,-1.3034,-1.2998,-1.3,-1.3071,-1.3071,-1.3023,-1.3152,-1.3089,-1.31,-1.315,-1.3168,-1.3183,-1.3183,-1.295,0,0,0,0,0,-1.2989,-1.3026,-1.3015,-1.3087,-1.3093,-1.3072,-1.3091,-1.3068,-1.3078,-1.3082,-1.3078,-1.309,-1.3122,-1.3145,-1.3174,-1.3262,-1.3262,-1.3305,-1.332,-1.3332,-1.3343,-1.339,-1.3409,-1.3205,-1.3205,-1.3205,0,0,-1.3049,-1.3047,-1.3073,-1.3104,-1.311,-1.315,-1.3076,-1.3122,-1.3151,-1.3089,-1.315,-1.3148,-1.3158,-1.3235,-1.3269,-1.3237,-1.3399,-1.3343,-1.3353,-1.3357,-1.3401,-1.342,-1.3438,-1.3211,-1.321,-1.3209,0,0,-1.3178,-1.318,-1.324,-1.3247,-1.3256,-1.3241,-1.3255,-1.3254,-1.325,-1.3311,-1.3265,-1.3299,-1.3356,-1.3365,-1.3378,-1.3509,-1.3473,-1.3519,-1.3599,-1.3645,-1.3661,-1.3675,-1.3724,-1.3741,-1.3529,-1.3529,-1.353,0,-1.3252,-1.331,-1.3276,-1.3324,-1.3339,-1.3283,-1.3344,-1.3352,-1.3371,-1.3383,-1.3346,-1.3416,-1.3419,-1.3498,-1.353,-1.3541,-1.3557,-1.352,-1.3661,-1.3675,-1.3688,-1.3734,-1.3752,-1.3535,-1.3534,-1.3534,-1.3533,0,-1.34,-1.3441,-1.3488,-1.3507,-1.3527,-1.3581,-1.3556,-1.358,-1.3555,-1.3544,-1.3606,-1.3607,-1.3636,-1.3652,-1.3629,-1.3728,-1.3708,-1.3667,-1.3604,-1.3714,-1.3756,-1.3773,-1.3543,-1.3541,-1.354,-1.3538,0,0,-1.3588,-1.3586,-1.3604,-1.3612,-1.3616,-1.3647,-1.3699,-1.3726,-1.3748,-1.3762,-1.3805,-1.3854,-1.3816,-1.383,-1.3806,-1.3846,-1.3952,-1.38,-1.38,-1.383,-1.4062,-1.4095,-1.4116,-1.3927,-1.393,-1.3932,-1.4062,0,-1.3717,-1.3805,-1.3775,-1.3865,-1.3903,-1.3849,-1.3894,-1.3902,-1.3892,-1.3923,-1.3912,-1.3948,-1.3894,-1.3902,-1.394,-1.3931,-1.3998,-1.3921,-1.3968,-1.397,-1.397,-1.4137,-1.4172,-1.4295,-1.4078,-1.4081,-1.4083,0,-1.3879,-1.3899,-1.3993,-1.399,-1.4005,-1.4046,-1.4069,-1.4098,-1.4106,-1.4096,-1.4111,-1.4078,-1.4129,-1.4064,-1.4134,-1.4082,-1.4099,-1.4097,-1.4101,-1.4107,-1.4035,-1.415,-1.4333,-1.4352,-1.4108,-1.4106,-1.4104,0,-1.4009,-1.4059,-1.4121,-1.4129,-1.4128,-1.4158,-1.4159,-1.4163,-1.4181,-1.42,-1.4212,-1.4237,-1.4251,-1.4272,-1.4247,-1.4201,-1.4321,-1.4253,-1.4315,-1.4316,-1.4345,-1.4344,-1.4536,-1.4352,-1.4352,-1.4352,-1.4351,0,-1.4157,-1.4218,-1.418,-1.4219,-1.4284,-1.4249,-1.4315,-1.4309,-1.4313,-1.435,-1.4304,-1.434,-1.4304,-1.4336,-1.4317,-1.4378,-1.4384,-1.4379,-1.4373,-1.4384,-1.4386,-1.4397,-1.4389,-1.4357,-1.4356,-1.4355,-1.4354,0,-1.4315,-1.4292,-1.4357,-1.435,-1.4349,-1.4398,-1.4392,-1.4428,-1.4414,-1.4461,-1.447,-1.4449,-1.4485,-1.4461,-1.4497,-1.4484,-1.4565,-1.4547,-1.4563,-1.4559,-1.4623,-1.4618,-1.4831,-1.4858,-1.4655,-1.4657,-1.4659,0,-1.4413,-1.4458,-1.4455,-1.4476,-1.448,-1.4514,-1.4532,-1.4498,-1.4519,-1.453,-1.4565,-1.4596,-1.462,-1.4679,-1.4668,-1.4695,-1.4678,-1.4751,-1.4682,-1.4692,-1.4682,-1.468,-1.4685,-1.4766,-1.4768,-1.477,-1.4772,0,-1.4589,-1.4575,-1.4602,-1.4626,-1.4648,-1.4665,-1.4678,-1.4698,-1.4664,-1.4689,-1.4725,-1.4743,-1.4779,-1.4812,-1.4834,-1.4835,-1.4799,-1.4793,-1.4809,-1.4822,-1.483,-1.4829,-1.4603,-1.4789,-1.4787,-1.4786,-1.4785,-1.4784,-1.4721,-1.4758,-1.4762,-1.4794,-1.48,-1.4813,-1.4846,-1.4836,-1.4865,-1.4891,-1.4869,-1.4912,-1.4917,-1.4943,-1.4949,-1.4982,-1.4953,-1.4976,-1.4982,-1.4989,-1.4998,-1.4823,-1.4986,-1.4985,-1.4985,-1.4984,-1.4984,0,-1.4896,-1.4895,-1.4925,-1.4944,-1.4969,-1.493,-1.4943,-1.4967,-1.5005,-1.5013,-1.5036,-1.5077,-1.5108,-1.5098,-1.5125,-1.5154,-1.5138,-1.5162,-1.5161,-1.5162,-1.5022,-1.5007,-1.5175,-1.5175,-1.5175,-1.5175,-1.5175,-1.5174,-1.4991,-1.5052,-1.5038,-1.5102,-1.51,-1.5142,-1.5152,-1.5164,-1.517,-1.5218,-1.5243,-1.5235,-1.5236,-1.5263,-1.5289,-1.5285,-1.5298,-1.533,-1.532,-1.519,-1.5172,-1.5154,-1.5139,-1.5332,-1.5332,-1.5457,-1.5458,-1.5459]},{"header":{"parameterUnit":"m.s-1","parameterCategory":1,"la1":30.2991,"la2":30.254,"lo1":-89.0895,"lo2":-89.0444,"dy":0.0017,"dx":0.0017,"nx":28,"ny":28,"refTime":"2023-08-31T09:00:00:Z","depth":0,"parameterNumber":3,"parameterNumberName":"V-component_of_WINDS"},"data":[0,0,0,0,0,0,0,0,0,0,0,0,0,0,0,0,0,0,0,0,0,0,0,0,0,0,0,0,0,0,0,0,0,0,0,0,0,0,0,0,0,0,0,0,0,0,0,0,0,0,0,0,0,0,0,0,0,0,-5.1903,-5.1904,0,-5.2,-5.2001,-5.2002,-5.193,-5.1927,-5.1924,-5.1921,-5.2014,-5.202,-5.2025,0,0,0,0,0,0,0,0,0,0,0,0,0,-5.165,-5.1655,-5.1903,-5.1904,-5.1905,-5.1999,-5.2001,-5.2002,-5.1931,-5.1927,-5.1923,-5.192,-5.2013,-5.2019,-5.2025,0,0,0,0,0,0,0,0,0,0,0,0,0,-5.1754,-5.1656,-5.1902,-5.1881,-5.188,-5.1999,-5.2001,-5.2002,-5.1932,-5.1927,-5.1922,-5.1918,-5.201,-5.2018,-5.2026,-5.217,0,0,-5.2051,-5.2054,0,0,0,0,0,0,0,0,-5.1748,-5.1764,-5.1883,-5.1883,-5.1882,-5.1948,-5.1946,-5.2058,-5.1933,-5.1912,-5.1921,-5.1916,-5.1996,-5.2005,-5.2033,-5.2174,-5.2178,-5.2052,-5.2057,-5.206,-5.2062,0,0,0,0,0,0,0,-5.1741,-5.1759,-5.1941,-5.1885,-5.1884,-5.1865,-5.1874,-5.1967,-5.1979,-5.1913,-5.1908,-5.1921,-5.1994,-5.2025,-5.2035,-5.2179,-5.2051,-5.2059,-5.2064,-5.2067,-5.2442,-5.2447,0,0,0,0,0,0,-5.1737,-5.1753,-5.1938,-5.1944,-5.1802,-5.1873,-5.1884,-5.1931,-5.1977,-5.198,-5.1925,-5.1917,-5.2014,-5.2025,-5.2038,-5.2208,-5.206,-5.2068,-5.2072,-5.2437,-5.2444,-5.2449,0,0,0,0,0,0,-5.1732,-5.1754,-5.1934,-5.1847,-5.1869,-5.1882,-5.1936,-5.1936,-5.1967,-5.1986,-5.1987,-5.1955,-5.2011,-5.2026,-5.2138,-5.2211,-5.2071,-5.2079,-5.2431,-5.2439,-5.2446,-5.2551,0,0,0,0,0,0,-5.1725,-5.1753,-5.1809,-5.1849,-5.1874,-5.2034,-5.1941,-5.1941,-5.1982,-5.1973,-5.2015,-5.2017,-5.2008,-5.2126,-5.2146,-5.2219,-5.2085,-5.2425,-5.2435,-5.2444,-5.2541,-5.2562,-5.2579,0,0,0,0,0,-5.1716,-5.1833,-5.1812,-5.1835,-5.1944,-5.2039,-5.2052,-5.2042,-5.1988,-5.2043,-5.2056,-5.2016,-5.22,-5.2138,-5.216,-5.2237,-5.242,-5.2432,-5.2443,-5.2533,-5.2558,-5.2579,0,0,0,0,0,0,-5.1799,-5.1838,-5.1815,-5.1949,-5.1992,-5.2027,-5.2096,-5.2068,-5.2125,-5.2114,-5.2096,-5.2106,-5.2223,-5.2241,-5.2172,-5.2377,-5.2301,-5.2317,-5.2362,-5.2386,-5.2404,-5.2397,-5.2092,0,0,0,0,0,-5.1833,-5.1908,-5.1938,-5.2053,-5.2076,-5.2083,-5.2123,-5.2112,-5.2154,-5.2171,-5.2191,-5.2232,-5.2299,-5.2343,-5.2406,-5.2544,-5.2551,-5.2607,-5.2626,-5.2641,-5.2655,-5.2729,-5.2754,-5.2487,-5.2487,-5.2487,0,0,-5.1904,-5.1934,-5.1983,-5.2071,-5.2102,-5.2179,-5.2098,-5.2182,-5.2239,-5.2183,-5.229,-5.2307,-5.235,-5.2476,-5.2532,-5.2494,-5.2731,-5.2656,-5.2668,-5.2674,-5.2744,-5.2769,-5.2791,-5.2495,-5.2493,-5.2492,0,0,-5.2072,-5.2103,-5.2203,-5.2237,-5.2286,-5.229,-5.2314,-5.2354,-5.2363,-5.2471,-5.243,-5.2496,-5.2611,-5.2645,-5.2676,-5.2858,-5.2823,-5.2878,-5.2976,-5.3048,-5.307,-5.3088,-5.3152,-5.3175,-5.2892,-5.2893,-5.2893,0,-5.2153,-5.2269,-5.2257,-5.2345,-5.2385,-5.234,-5.2439,-5.2472,-5.2538,-5.2565,-5.2522,-5.2667,-5.2693,-5.2826,-5.287,-5.2898,-5.2923,-5.2873,-5.3068,-5.3086,-5.3103,-5.3164,-5.3189,-5.2899,-5.2898,-5.2898,-5.2897,0,-5.2366,-5.2447,-5.2521,-5.2589,-5.2636,-5.273,-5.273,-5.278,-5.2763,-5.2771,-5.2881,-5.2911,-5.2979,-5.301,-5.2994,-5.314,-5.3115,-5.3071,-5.2993,-5.3136,-5.3192,-5.3216,-5.2909,-5.2906,-5.2904,-5.2903,0,0,-5.2588,-5.2649,-5.2677,-5.2707,-5.2758,-5.2819,-5.291,-5.2979,-5.3021,-5.3068,-5.3142,-5.3242,-5.3201,-5.3237,-5.3225,-5.3288,-5.3429,-5.3236,-5.3236,-5.327,-5.3591,-5.3624,-5.3652,-5.3407,-5.3411,-5.3414,-5.3587,0,-5.2759,-5.292,-5.2912,-5.3061,-5.3135,-5.3094,-5.3172,-5.3211,-5.3221,-5.3283,-5.3293,-5.3364,-5.3305,-5.3327,-5.3387,-5.34,-5.3493,-5.3387,-5.3474,-5.3477,-5.3464,-5.3681,-5.3717,-5.3878,-5.361,-5.3613,-5.3616,0,-5.2979,-5.3037,-5.3194,-5.3235,-5.3265,-5.3337,-5.3399,-5.346,-5.3502,-5.3505,-5.3546,-5.3523,-5.3613,-5.3534,-5.3656,-5.3584,-5.3619,-5.363,-5.3636,-5.3644,-5.3555,-5.3694,-5.393,-5.3954,-5.3651,-5.3648,-5.3646,0,-5.3126,-5.3242,-5.3351,-5.3378,-5.3428,-5.3479,-5.3502,-5.354,-5.3582,-5.3635,-5.3662,-5.3724,-5.3758,-5.3806,-5.38,-5.3743,-5.3925,-5.3845,-5.3928,-5.3928,-5.3968,-5.3965,-5.4212,-5.3991,-5.3991,-5.399,-5.399,0,-5.3317,-5.3415,-5.3418,-5.3485,-5.3593,-5.3582,-5.3688,-5.3705,-5.374,-5.3808,-5.3775,-5.3839,-5.3828,-5.3891,-5.3887,-5.3989,-5.4004,-5.4007,-5.4005,-5.401,-5.401,-5.4033,-5.4021,-5.3997,-5.3995,-5.3994,-5.3993,0,-5.3498,-5.3504,-5.3621,-5.3659,-5.3671,-5.3749,-5.378,-5.3843,-5.385,-5.3937,-5.3957,-5.3967,-5.4041,-5.404,-5.4122,-5.4119,-5.4244,-5.4229,-5.4231,-5.4228,-5.431,-5.4302,-5.458,-5.4615,-5.4372,-5.4374,-5.4376,0,-5.362,-5.3694,-5.3741,-5.3786,-5.3813,-5.3884,-5.3927,-5.3919,-5.3965,-5.4019,-5.4075,-5.4146,-5.4202,-5.4321,-5.4335,-5.4398,-5.4383,-5.4476,-5.4392,-5.4395,-5.4384,-5.438,-5.4387,-5.4492,-5.4495,-5.4497,-5.4499,0,-5.3834,-5.3834,-5.3898,-5.3965,-5.4017,-5.4068,-5.4115,-5.4152,-5.4149,-5.4202,-5.4278,-5.4321,-5.4407,-5.4477,-5.4538,-5.4559,-5.4528,-5.4526,-5.4548,-5.4554,-5.4552,-5.4554,-5.4275,-5.4519,-5.4517,-5.4516,-5.4514,-5.4514,-5.3989,-5.4054,-5.4097,-5.417,-5.4205,-5.4249,-5.431,-5.4326,-5.439,-5.4461,-5.4451,-5.4536,-5.4575,-5.4654,-5.4681,-5.4745,-5.4712,-5.4745,-5.4753,-5.4761,-5.477,-5.4542,-5.4756,-5.4755,-5.4755,-5.4754,-5.4754,0,-5.4202,-5.4228,-5.4295,-5.4363,-5.442,-5.4389,-5.4439,-5.4488,-5.4563,-5.4604,-5.4661,-5.4747,-5.4815,-5.4835,-5.49,-5.4948,-5.4936,-5.4965,-5.4961,-5.4966,-5.4796,-5.477,-5.4974,-5.4974,-5.4974,-5.4974,-5.4974,-5.4974,-5.4319,-5.4427,-5.4432,-5.4555,-5.458,-5.4665,-5.4696,-5.4736,-5.4769,-5.4868,-5.4925,-5.4938,-5.497,-5.5037,-5.5098,-5.5102,-5.5127,-5.5162,-5.516,-5.5001,-5.4978,-5.4957,-5.4933,-5.5168,-5.5168,-5.5325,-5.5327,-5.5328]}]]